VR2R-13 Weather Reports


Display with metric or nautical units.
time (UTC)temp
F
wind
direction
speed
MPH
gust
MPH
rain 1hr
in
rain 24hr
in
rain mn
in
humidity
%
barometer
mb
20260902210540 64 325 9.0 17.0 0.00 0.00 0.00 96 902.4
20260902210441 64 338 9.0 17.0 0.00 0.00 0.00 96 902.5
20260902210040 64 337 8.0 17.0 0.00 0.00 0.00 97 902.5
20260902205841 64 348 10.0 16.0 0.00 0.00 0.00 97 902.5
20260902205539 64 335 4.0 15.0 0.00 0.00 0.00 97 902.3
20260902205241 64 356 9.0 15.0 0.00 0.00 0.00 97 902.3
20260902205039 64 11 10.0 15.0 0.00 0.00 0.00 97 902.4
20260902204641 64 16 9.0 15.0 0.00 0.00 0.00 97 902.4
20260902204541 64 356 9.0 15.0 0.00 0.00 0.00 96 902.4
20260902204041 64 342 9.0 15.0 0.00 0.00 0.00 96 902.3
20260902204039 64 303 9.0 15.0 0.00 0.00 0.00 96 902.3
20260902203539 64 354 9.0 15.0 0.00 0.00 0.00 96 902.4
20260902203440 64 3 9.0 15.0 0.00 0.00 0.00 96 902.4
20260902203039 64 2 9.0 19.0 0.00 0.00 0.00 96 902.3
20260902202840 64 327 9.0 19.0 0.00 0.00 0.00 96 902.3
20260902202240 64 1 11.0 19.0 0.00 0.00 0.00 96 902.3
20260902202039 64 360 9.0 17.0 0.00 0.00 0.00 96 902.3
20260902201640 64 350 9.0 19.0 0.00 0.00 0.00 96 902.2
20260902201539 64 349 8.0 19.0 0.00 0.00 0.00 96 902.3
20260902201041 64 22 8.0 20.0 0.00 0.00 0.00 96 902.2
20260902201039 64 357 8.0 20.0 0.00 0.00 0.00 96 902.2
20260902200539 64 351 10.0 20.0 0.00 0.00 0.00 96 902.1
20260902200440 64 35 10.0 20.0 0.00 0.00 0.00 96 902.3
20260902200039 64 324 10.0 19.0 0.00 0.00 0.00 96 902.4
20260902195840 64 22 9.0 19.0 0.00 0.00 0.00 97 902.4
20260902195539 64 6 9.0 18.0 0.00 0.00 0.00 96 902.4
20260902195240 64 1 9.0 18.0 0.00 0.00 0.00 96 902.3
20260902195039 64 349 8.0 18.0 0.00 0.00 0.00 96 902.5
20260902194640 64 9 7.0 16.0 0.00 0.00 0.00 96 902.5
20260902194539 64 360 9.0 16.0 0.00 0.00 0.00 96 902.5
20260902194041 64 355 9.0 14.0 0.00 0.00 0.00 96 902.2
20260902194039 64 347 9.0 14.0 0.00 0.00 0.00 96 902.3
20260902193539 64 353 9.0 15.0 0.00 0.00 0.00 96 902.4
20260902193440 64 316 9.0 15.0 0.00 0.00 0.00 96 902.4
20260902193039 64 1 9.0 16.0 0.00 0.00 0.00 96 902.4
20260902192840 64 341 9.0 16.0 0.00 0.00 0.00 96 902.5
20260902192539 64 3 8.0 17.0 0.00 0.00 0.00 96 902.5
20260902192240 64 336 10.0 17.0 0.00 0.00 0.00 96 902.5
20260902192039 64 348 8.0 17.0 0.00 0.00 0.00 96 902.5
20260902191640 64 340 10.0 17.0 0.00 0.00 0.00 97 902.5
20260902191040 64 23 8.0 16.0 0.00 0.00 0.00 97 902.7
20260902191038 64 351 8.0 16.0 0.00 0.00 0.00 97 902.7
20260902190538 64 339 8.0 16.0 0.00 0.00 0.00 96 902.6
20260902190440 64 347 9.0 16.0 0.00 0.00 0.00 96 902.6
20260902190038 64 88 8.0 15.0 0.00 0.00 0.00 96 902.6
20260902185840 64 358 9.0 15.0 0.00 0.00 0.00 96 902.7
20260902185538 64 60 8.0 18.0 0.00 0.00 0.00 96 902.7
20260902185240 64 353 8.0 18.0 0.00 0.00 0.00 96 902.8
20260902185038 65 299 9.0 18.0 0.00 0.00 0.00 96 902.5
20260902184640 65 333 10.0 19.0 0.00 0.00 0.00 96 902.6
20260902184538 65 357 8.0 19.0 0.00 0.00 0.00 96 902.6
20260902184040 65 2 10.0 20.0 0.00 0.00 0.00 96 902.6
20260902184038 65 341 10.0 20.0 0.00 0.00 0.00 96 902.6
20260902183538 65 327 8.0 20.0 0.00 0.00 0.00 96 902.7
20260902183440 65 330 9.0 20.0 0.00 0.00 0.00 96 902.7
20260902183038 65 351 10.0 17.0 0.00 0.00 0.00 96 902.6
20260902182840 65 266 10.0 17.0 0.00 0.00 0.00 96 902.8
20260902182538 65 5 10.0 17.0 0.00 0.00 0.00 96 902.6
20260902182240 65 340 6.0 16.0 0.00 0.00 0.00 96 902.8
20260902182038 65 2 8.0 18.0 0.00 0.00 0.00 96 902.9
20260902181639 65 336 9.0 18.0 0.00 0.00 0.00 96 902.9
20260902181538 65 360 9.0 18.0 0.00 0.00 0.00 96 903.0
20260902181040 65 303 9.0 17.0 0.00 0.00 0.00 96 903.1
20260902180439 65 347 9.0 16.0 0.00 0.00 0.00 97 903.2
20260902175839 65 2 8.0 14.0 0.00 0.00 0.00 96 903.4
20260902175538 65 319 6.0 13.0 0.00 0.00 0.00 97 903.3
20260902175239 65 331 8.0 18.0 0.00 0.00 0.00 97 903.4
20260902175038 65 313 8.0 18.0 0.00 0.00 0.00 97 903.5
20260902174639 65 11 3.0 13.0 0.00 0.00 0.00 97 903.4
20260902174538 64 32 0.0 0.0 0.00 0.00 0.00 97 903.5
20260902174039 65 63 8.0 19.0 0.00 0.00 0.00 97 903.5
20260902173538 65 29 9.0 19.0 0.00 0.00 0.00 97 903.3
20260902173439 65 325 10.0 19.0 0.00 0.00 0.00 97 903.4
20260902173039 65 296 7.0 18.0 0.00 0.00 0.00 97 903.6
20260902172839 65 329 8.0 18.0 0.00 0.00 0.00 96 903.5
20260902172538 65 305 8.0 18.0 0.00 0.00 0.00 96 903.5
20260902172239 65 10 9.0 18.0 0.00 0.00 0.00 97 903.5
20260902171639 65 338 7.0 21.0 0.00 0.00 0.00 97 903.4
20260902171538 65 298 8.0 21.0 0.00 0.00 0.00 97 903.5
20260902171039 65 360 8.0 22.0 0.00 0.00 0.00 97 903.5
20260902170538 65 43 8.0 19.0 0.00 0.00 0.00 97 903.6
20260902170439 65 360 10.0 19.0 0.00 0.00 0.00 97 903.6
20260902170037 65 3 7.0 19.0 0.00 0.00 0.00 97 903.7
20260902165839 65 0 8.0 19.0 0.00 0.00 0.00 97 903.5
20260902165537 65 317 8.0 19.0 0.00 0.00 0.00 97 903.5
20260902165239 65 305 8.0 19.0 0.00 0.00 0.00 97 903.5
20260902165038 65 350 7.0 19.0 0.00 0.00 0.00 97 903.6
20260902164639 65 21 10.0 19.0 0.00 0.00 0.00 97 903.6
20260902164537 65 315 9.0 19.0 0.00 0.00 0.00 97 903.5
20260902164039 65 14 10.0 19.0 0.00 0.00 0.00 97 903.4
20260902164037 65 2 10.0 19.0 0.00 0.00 0.00 97 903.4
20260902163439 65 333 9.0 18.0 0.00 0.00 0.00 97 903.4
20260902162839 65 360 10.0 18.0 0.00 0.00 0.00 97 903.3
20260902162239 65 327 9.0 23.0 0.00 0.00 0.00 97 903.4
20260902161639 66 310 11.0 23.0 0.00 0.00 0.00 97 903.4
20260902161537 66 353 10.0 17.0 0.00 0.00 0.00 97 903.4
20260902161039 66 360 8.0 17.0 0.00 0.00 0.00 97 903.4
20260902161037 66 350 8.0 17.0 0.00 0.00 0.00 97 903.4
20260902160440 65 322 0.0 0.0 0.00 0.00 0.00 97 903.5
20260902160037 65 360 10.0 21.0 0.00 0.00 0.00 97 903.4
20260902155839 65 349 10.0 18.0 0.00 0.00 0.00 97 903.4
20260902155537 66 358 10.0 21.0 0.00 0.00 0.00 97 903.6
20260902155238 66 15 10.0 21.0 0.00 0.00 0.00 97 903.5
20260902155037 66 359 11.0 21.0 0.00 0.00 0.00 97 903.5
20260902154638 66 342 8.0 23.0 0.00 0.00 0.00 97 903.5
20260902154537 66 319 10.0 23.0 0.00 0.00 0.00 97 903.5
20260902154039 65 12 12.0 23.0 0.00 0.00 0.00 97 903.5
20260902154037 65 15 12.0 23.0 0.00 0.00 0.00 97 903.5
20260902153537 66 360 10.0 19.0 0.00 0.00 0.00 97 903.4
20260902153438 66 317 10.0 19.0 0.00 0.00 0.00 98 903.5
20260902153037 66 327 9.0 23.0 0.00 0.00 0.00 98 903.6
20260902152838 66 5 11.0 23.0 0.00 0.00 0.00 98 903.4
20260902152537 66 335 10.0 20.0 0.00 0.00 0.00 98 903.7
20260902152238 66 296 10.0 18.0 0.00 0.00 0.00 98 903.7
20260902152037 66 21 10.0 18.0 0.00 0.00 0.00 98 903.6
20260902151638 66 14 9.0 15.0 0.00 0.00 0.00 98 903.7
20260902151537 66 14 10.0 15.0 0.00 0.00 0.00 99 903.7
20260902144038 66 316 11.0 20.0 0.00 0.00 0.00 98 904.0
20260902144036 66 335 11.0 20.0 0.00 0.00 0.00 98 904.0
20260902143536 66 322 9.0 18.0 0.00 0.00 0.00 98 904.0
20260902143438 66 360 9.0 16.0 0.00 0.00 0.00 98 904.1
20260902143036 66 350 8.0 18.0 0.00 0.00 0.00 98 904.1
20260902142838 66 309 8.0 18.0 0.00 0.00 0.00 98 904.1
20260902142536 66 335 10.0 18.0 0.00 0.00 0.00 98 904.1
20260902142238 66 360 11.0 18.0 0.00 0.00 0.00 98 904.1
20260902142036 66 354 9.0 15.0 0.00 0.00 0.00 98 904.1
20260902141638 66 6 9.0 14.0 0.00 0.00 0.00 98 904.2
20260902141536 66 333 6.0 12.0 0.00 0.00 0.00 98 904.0
20260902141038 66 342 3.0 13.0 0.00 0.00 0.00 98 904.1
20260902141036 66 13 3.0 13.0 0.00 0.00 0.00 98 904.1
20260902140537 66 336 0.0 8.0 0.00 0.00 0.00 98 904.0
20260902140438 66 316 4.0 11.0 0.00 0.00 0.00 98 904.0
20260902140036 66 63 1.0 6.0 0.00 0.00 0.00 98 904.1
20260902135536 66 330 4.0 10.0 0.00 0.00 0.00 98 904.1
20260902135237 66 300 4.0 10.0 0.00 0.00 0.00 98 904.1
20260902135036 66 271 4.0 8.0 0.00 0.00 0.00 98 904.1
20260902134638 66 261 2.0 7.0 0.00 0.00 0.00 98 904.0
20260902134536 66 256 1.0 4.0 0.00 0.00 0.00 98 903.9
20260902134038 66 42 0.0 5.0 0.00 0.00 0.00 98 903.8
20260902134036 66 46 0.0 5.0 0.00 0.00 0.00 98 903.8
20260902133536 66 327 7.0 15.0 0.00 0.00 0.00 98 903.9
20260902133437 66 52 7.0 15.0 0.00 0.00 0.00 98 903.9
20260902132837 66 355 7.0 15.0 0.00 0.00 0.00 98 903.8
20260902132536 66 18 1.0 8.0 0.00 0.00 0.00 98 903.9
20260902132237 66 360 6.0 11.0 0.00 0.00 0.00 98 903.9
20260902132036 66 3 4.0 10.0 0.00 0.00 0.00 98 904.1
20260902131637 66 18 5.0 12.0 0.00 0.00 0.00 98 904.0
20260902131536 66 360 5.0 12.0 0.00 0.00 0.00 98 903.9
20260902131036 66 200 5.0 10.0 0.00 0.00 0.00 98 903.9
20260902130537 66 4 5.0 13.0 0.00 0.00 0.00 98 903.9
20260902130437 67 355 6.0 13.0 0.00 0.00 0.00 98 903.7
20260902130036 67 64 6.0 11.0 0.00 0.00 0.00 98 903.7
20260902125837 67 34 4.0 11.0 0.00 0.00 0.00 98 903.7
20260902125536 67 6 7.0 16.0 0.00 0.00 0.00 98 903.5
20260902125237 67 360 7.0 16.0 0.00 0.00 0.00 98 903.5
20260902125036 67 20 7.0 13.0 0.00 0.00 0.00 98 903.6
20260902124536 67 71 6.0 13.0 0.00 0.00 0.00 98 903.4
20260902124037 67 16 7.0 13.0 0.00 0.00 0.00 98 903.5
20260902124035 67 31 7.0 13.0 0.00 0.00 0.00 98 903.5
20260902123536 67 28 2.0 13.0 0.00 0.00 0.00 99 903.4
20260902123437 67 351 3.0 8.0 0.00 0.00 0.00 99 903.5
20260902123035 66 296 0.0 10.0 0.00 0.00 0.00 99 903.3
20260902122535 67 320 8.0 13.0 0.00 0.00 0.00 98 903.5
20260902121637 67 352 9.0 16.0 0.00 0.00 0.00 98 903.4
20260902121535 67 238 8.0 16.0 0.00 0.00 0.00 98 903.4
20260902121037 67 348 8.0 16.0 0.00 0.00 0.00 98 903.4
20260902121035 67 327 8.0 16.0 0.00 0.00 0.00 98 903.4
20260902120535 67 347 7.0 16.0 0.00 0.00 0.00 98 903.5
20260902120436 67 328 7.0 16.0 0.00 0.00 0.00 98 903.5
20260902120035 67 32 6.0 16.0 0.00 0.00 0.00 98 903.3
20260902115836 67 360 8.0 16.0 0.00 0.00 0.00 98 903.2
20260902115535 67 69 6.0 14.0 0.00 0.00 0.00 98 903.3
20260902115236 67 91 7.0 14.0 0.00 0.00 0.00 98 903.2
20260902115035 67 6 2.0 11.0 0.00 0.00 0.00 98 903.2
20260902114636 67 40 8.0 14.0 0.00 0.00 0.00 98 903.2
20260902114535 67 29 7.0 14.0 0.00 0.00 0.00 98 903.2
20260902114037 67 19 2.0 10.0 0.00 0.00 0.00 98 903.2
20260902114035 67 360 2.0 10.0 0.00 0.00 0.00 98 903.2
20260902113535 67 35 5.0 10.0 0.00 0.00 0.00 98 903.2
20260902113436 67 53 4.0 10.0 0.00 0.00 0.00 98 903.2
20260902113035 67 277 7.0 15.0 0.00 0.00 0.00 98 903.0
20260902112836 67 334 7.0 15.0 0.00 0.00 0.00 98 903.1
20260902112535 67 56 5.0 15.0 0.00 0.00 0.00 98 903.0
20260902112236 67 45 8.0 15.0 0.00 0.00 0.00 98 903.0
20260902112035 67 10 8.0 15.0 0.00 0.00 0.00 98 902.9
20260902111636 67 349 8.0 15.0 0.00 0.00 0.00 98 902.8
20260902111535 67 49 8.0 15.0 0.00 0.00 0.00 98 902.9
20260902111037 68 86 6.0 15.0 0.00 0.00 0.00 98 902.9
20260902111035 68 44 6.0 15.0 0.00 0.00 0.00 98 902.9
20260902110535 68 355 7.0 15.0 0.00 0.00 0.00 98 902.8
20260902110436 68 51 7.0 15.0 0.00 0.00 0.00 98 902.9
20260902110035 68 7 6.0 13.0 0.00 0.00 0.00 98 902.8
20260902105836 68 17 5.0 13.0 0.00 0.00 0.00 98 902.8
20260902105535 68 37 4.0 11.0 0.00 0.00 0.00 98 902.7
20260902105236 68 26 5.0 11.0 0.00 0.00 0.00 98 902.7
20260902105036 68 100 4.0 11.0 0.00 0.00 0.00 98 902.7
20260902104636 68 262 2.0 8.0 0.00 0.00 0.00 98 902.7
20260902104036 68 341 5.0 12.0 0.00 0.00 0.00 98 902.7
20260902103534 68 55 7.0 17.0 0.00 0.00 0.00 98 902.7
20260902103436 68 39 6.0 17.0 0.00 0.00 0.00 98 902.5
20260902103034 68 77 7.0 19.0 0.00 0.00 0.00 98 902.6
20260902102836 68 7 6.0 19.0 0.00 0.00 0.00 98 902.7
20260902102534 68 36 6.0 19.0 0.00 0.00 0.00 98 902.7
20260902102236 68 37 7.0 19.0 0.00 0.00 0.00 98 902.4
20260902102034 68 13 8.0 13.0 0.00 0.00 0.00 98 902.5
20260902101636 68 20 6.0 13.0 0.00 0.00 0.00 98 902.6
20260902101534 68 57 5.0 13.0 0.00 0.00 0.00 98 902.7
20260902101036 68 32 7.0 13.0 0.00 0.00 0.00 98 902.6
20260902101034 68 29 7.0 13.0 0.00 0.00 0.00 98 902.7
20260902100535 68 351 0.0 0.0 0.00 0.00 0.00 98 902.6
20260902100436 68 2 8.0 12.0 0.00 0.00 0.00 98 902.5
20260902100034 68 347 7.0 13.0 0.00 0.00 0.00 98 902.5
20260902095838 68 37 6.0 13.0 0.00 0.00 0.00 98 902.4
20260902095534 68 17 6.0 13.0 0.00 0.00 0.00 98 902.5
20260902095235 68 39 6.0 12.0 0.00 0.00 0.00 98 902.5
20260902095034 68 25 6.0 12.0 0.00 0.00 0.00 98 902.4
20260902094635 68 12 7.0 14.0 0.00 0.00 0.00 98 902.5
20260902094534 68 16 8.0 14.0 0.00 0.00 0.00 98 902.4
20260902094036 68 39 8.0 14.0 0.00 0.00 0.00 98 902.4
20260902094034 68 2 8.0 14.0 0.00 0.00 0.00 98 902.4
20260902093534 68 341 7.0 18.0 0.00 0.00 0.00 98 902.4
20260902093435 68 350 7.0 18.0 0.00 0.00 0.00 98 902.4
20260902093034 69 360 7.0 18.0 0.00 0.00 0.00 98 902.3
20260902092835 69 352 7.0 18.0 0.00 0.00 0.00 98 902.3
20260902092534 69 42 8.0 13.0 0.00 0.00 0.00 98 902.4
20260902092235 69 19 8.0 13.0 0.00 0.00 0.00 98 902.3
20260902092034 69 55 8.0 13.0 0.00 0.00 0.00 98 902.4
20260902091635 69 19 6.0 11.0 0.00 0.00 0.00 98 902.4
20260902091534 69 46 4.0 10.0 0.00 0.00 0.00 98 902.5
20260902091037 69 339 2.0 11.0 0.00 0.00 0.00 98 902.4
20260902091035 69 11 2.0 11.0 0.00 0.00 0.00 98 902.4
20260902090534 69 12 8.0 16.0 0.00 0.00 0.00 98 902.4
20260902090435 69 337 7.0 16.0 0.00 0.00 0.00 98 902.4
20260902090034 69 43 7.0 15.0 0.00 0.00 0.00 98 902.4
20260902085835 69 53 6.0 15.0 0.00 0.00 0.00 98 902.3
20260902085535 69 309 7.0 15.0 0.00 0.00 0.00 98 902.3
20260902085235 69 360 6.0 15.0 0.00 0.00 0.00 98 902.2
20260902085034 69 66 6.0 11.0 0.00 0.00 0.00 98 902.2
20260902084635 69 32 3.0 9.0 0.00 0.00 0.00 98 902.3
20260902084534 69 46 0.0 8.0 0.00 0.00 0.00 98 902.3
20260902084036 69 6 4.0 12.0 0.00 0.00 0.00 98 902.3
20260902083534 69 20 5.0 12.0 0.00 0.00 0.00 98 902.2
20260902083435 69 47 5.0 12.0 0.00 0.00 0.00 98 902.3
20260902083034 69 50 5.0 10.0 0.00 0.00 0.00 98 902.2
20260902082835 69 113 4.0 9.0 0.00 0.00 0.00 98 902.2
20260902082534 69 111 0.0 4.0 0.00 0.00 0.00 98 902.1
20260902082235 69 18 4.0 10.0 0.00 0.00 0.00 98 902.3
20260902082034 69 15 3.0 10.0 0.00 0.00 0.00 99 902.2
20260902081635 69 113 4.0 10.0 0.00 0.00 0.00 98 902.2
20260902081533 69 61 4.0 13.0 0.00 0.00 0.00 98 902.2
20260902081035 69 12 5.0 13.0 0.00 0.00 0.00 98 902.1
20260902080534 69 318 4.0 11.0 0.00 0.00 0.00 98 902.1
20260902080435 69 51 4.0 11.0 0.00 0.00 0.00 98 902.2
20260902080033 70 145 1.0 6.0 0.00 0.00 0.00 99 902.0
20260902075835 70 71 3.0 9.0 0.00 0.00 0.00 98 902.0
20260902075533 70 73 4.0 9.0 0.00 0.00 0.00 98 902.0
20260902075235 70 75 4.0 9.0 0.00 0.00 0.00 98 902.0
20260902075033 69 97 4.0 9.0 0.00 0.00 0.00 98 902.0
20260902074635 69 121 4.0 13.0 0.00 0.00 0.00 98 902.0
20260902074533 69 70 4.0 13.0 0.00 0.00 0.00 98 902.0
20260902074035 69 11 6.0 13.0 0.00 0.00 0.00 98 902.2
20260902074033 69 360 6.0 13.0 0.00 0.00 0.00 98 902.2
20260902073533 69 265 3.0 8.0 0.00 0.00 0.00 98 902.3
20260902073434 69 358 4.0 8.0 0.00 0.00 0.00 98 902.2
20260902073033 70 315 3.0 6.0 0.00 0.00 0.00 98 902.3
20260902072834 70 68 1.0 6.0 0.00 0.00 0.00 99 902.2
20260902072533 70 73 2.0 4.0 0.00 0.00 0.00 99 902.3
20260902072234 69 5 4.0 10.0 0.00 0.00 0.00 98 902.1
20260902072033 69 342 3.0 10.0 0.00 0.00 0.00 98 902.3
20260902071634 69 343 5.0 10.0 0.00 0.00 0.00 98 902.2
20260902071533 69 8 4.0 10.0 0.00 0.00 0.00 98 902.3
20260902071035 69 360 3.0 7.0 0.00 0.00 0.00 98 902.3
20260902071033 69 38 3.0 7.0 0.00 0.00 0.00 98 902.3
20260902070533 69 74 4.0 9.0 0.00 0.00 0.00 98 902.2
20260902070434 69 64 4.0 9.0 0.00 0.00 0.00 98 902.2
20260902070033 69 360 4.0 9.0 0.00 0.00 0.00 98 902.3
20260902065533 69 258 4.0 7.0 0.00 0.00 0.00 98 902.2
20260902065234 69 13 0.0 3.0 0.00 0.00 0.00 99 902.3
20260902065033 69 25 3.0 8.0 0.00 0.00 0.00 98 902.3
20260902064533 69 349 3.0 7.0 0.00 0.00 0.00 98 902.3
20260902064035 69 149 2.0 7.0 0.00 0.00 0.00 99 902.3
20260902064033 69 147 2.0 7.0 0.00 0.00 0.00 99 902.3
20260902063533 69 45 4.0 10.0 0.00 0.00 0.00 99 902.4
20260902063434 69 68 5.0 10.0 0.00 0.00 0.00 99 902.3
20260902063032 69 39 4.0 11.0 0.00 0.00 0.00 98 902.4
20260902062834 69 65 4.0 11.0 0.00 0.00 0.00 98 902.3
20260902062533 69 4 5.0 10.0 0.00 0.00 0.00 98 902.4
20260902062234 69 94 4.0 10.0 0.00 0.00 0.00 98 902.4
20260902062033 69 37 4.0 10.0 0.00 0.00 0.00 98 902.4
20260902061634 69 355 5.0 10.0 0.00 0.00 0.00 98 902.4
20260902061532 69 9 5.0 12.0 0.00 0.00 0.00 98 902.5
20260902061034 69 5 5.0 12.0 0.00 0.00 0.00 98 902.5
20260902061032 69 29 5.0 12.0 0.00 0.00 0.00 98 902.5
20260902060532 69 355 1.0 9.0 0.00 0.00 0.00 99 902.6
20260902060435 69 31 2.0 9.0 0.00 0.00 0.00 99 902.6
20260902060032 69 52 2.0 7.0 0.00 0.00 0.00 99 902.5
20260902055834 69 10 4.0 8.0 0.00 0.00 0.00 99 902.4
20260902055234 69 311 5.0 14.0 0.00 0.00 0.00 98 902.5
20260902055032 69 15 5.0 14.0 0.00 0.00 0.00 98 902.5
20260902054634 69 3 7.0 14.0 0.00 0.00 0.00 98 902.6
20260902054532 69 6 6.0 14.0 0.00 0.00 0.00 98 902.5
20260902054034 69 19 5.0 13.0 0.00 0.00 0.00 98 902.6
20260902054032 69 25 5.0 13.0 0.00 0.00 0.00 98 902.6
20260902053532 69 181 5.0 13.0 0.00 0.00 0.00 98 902.7
20260902053434 69 350 5.0 13.0 0.00 0.00 0.00 98 902.7
20260902053032 69 283 4.0 12.0 0.00 0.00 0.00 98 902.7
20260902052833 69 358 6.0 12.0 0.00 0.00 0.00 98 902.8
20260902052532 69 360 6.0 15.0 0.00 0.00 0.00 98 902.8
20260902052234 69 18 8.0 15.0 0.00 0.00 0.00 98 902.9
20260902052032 69 19 7.0 15.0 0.00 0.00 0.00 98 902.8
20260902051633 69 5 2.0 9.0 0.00 0.00 0.00 98 902.8
20260902051532 69 353 5.0 15.0 0.00 0.00 0.00 98 902.8
20260902051034 69 281 7.0 15.0 0.00 0.00 0.00 98 902.8
20260902051032 69 284 7.0 15.0 0.00 0.00 0.00 98 902.8
20260902050433 69 352 6.0 16.0 0.00 0.00 0.00 98 902.9
20260902050032 69 344 7.0 16.0 0.00 0.00 0.00 98 902.8
20260902045833 69 40 9.0 19.0 0.00 0.00 0.00 98 902.7
20260902045532 68 21 0.0 12.0 0.00 0.00 0.00 98 902.7
20260902045233 69 18 9.0 14.0 0.00 0.00 0.00 99 902.8
20260902045032 69 355 3.0 14.0 0.00 0.00 0.00 98 902.9
20260902044633 68 3 8.0 16.0 0.00 0.00 0.00 98 902.9
20260902044532 68 360 6.0 16.0 0.00 0.00 0.00 98 903.0
20260902044034 68 329 8.0 17.0 0.00 0.00 0.00 98 903.1
20260902044032 68 348 8.0 17.0 0.00 0.00 0.00 98 903.1
20260902043532 68 360 8.0 17.0 0.00 0.00 0.00 98 903.0
20260902043032 68 8 8.0 17.0 0.00 0.00 0.00 98 903.2
20260902042833 68 353 5.0 17.0 0.00 0.00 0.00 98 903.2
20260902042532 68 17 7.0 17.0 0.00 0.00 0.00 98 903.2
20260902042233 68 2 7.0 13.0 0.00 0.00 0.00 98 903.3
20260902042032 68 28 4.0 13.0 0.00 0.00 0.00 98 903.2
20260902041633 68 15 0.0 7.0 0.00 0.00 0.00 98 903.3
20260902041533 68 355 4.0 15.0 0.00 0.00 0.00 98 903.2
20260902041034 69 360 5.0 13.0 0.00 0.00 0.00 98 903.2
20260902041032 69 296 5.0 13.0 0.00 0.00 0.00 98 903.2
20260902040531 68 360 6.0 17.0 0.00 0.00 0.00 98 903.3
20260902040433 68 15 0.0 10.0 0.00 0.00 0.00 98 903.2
20260902040031 68 25 13.0 22.0 0.00 0.00 0.00 98 903.3
20260902035833 68 360 13.0 22.0 0.00 0.00 0.00 98 903.1
20260902035531 68 360 10.0 19.0 0.00 0.00 0.00 98 903.2
20260902035233 68 360 11.0 19.0 0.00 0.00 0.00 98 903.3
20260902035031 68 360 6.0 19.0 0.00 0.00 0.00 98 903.3
20260902034633 68 12 2.0 12.0 0.00 0.00 0.00 98 903.3
20260902034531 68 346 12.0 23.0 0.00 0.00 0.00 98 903.3
20260902034033 68 47 11.0 20.0 0.00 0.00 0.00 98 903.4
20260902034031 68 50 11.0 20.0 0.00 0.00 0.00 98 903.4
20260902033531 68 56 11.0 20.0 0.00 0.00 0.00 98 903.4
20260902033433 68 357 12.0 20.0 0.00 0.00 0.00 98 903.4
20260902033031 68 335 9.0 20.0 0.00 0.00 0.00 98 903.2
20260902032833 68 18 10.0 18.0 0.00 0.00 0.00 98 903.2
20260902032531 68 305 0.0 15.0 0.00 0.00 0.00 98 903.4
20260902032233 68 14 7.0 16.0 0.00 0.00 0.00 98 903.4
20260902032031 68 357 9.0 16.0 0.00 0.00 0.00 98 903.3
20260902031633 68 21 9.0 15.0 0.00 0.00 0.00 98 903.3
20260902031531 68 10 8.0 14.0 0.00 0.00 0.00 98 903.3
20260902031033 68 32 6.0 14.0 0.00 0.00 0.00 98 903.3
20260902031031 68 348 6.0 14.0 0.00 0.00 0.00 98 903.3
20260902030531 68 9 10.0 18.0 0.00 0.00 0.00 98 903.2
20260902030432 68 329 10.0 18.0 0.00 0.00 0.00 98 903.3
20260902030031 68 38 8.0 18.0 0.00 0.00 0.00 98 903.1
20260902025832 68 341 9.0 16.0 0.00 0.00 0.00 98 903.3
20260902025531 68 360 8.0 14.0 0.00 0.00 0.00 98 903.3
20260902025233 68 8 6.0 10.0 0.00 0.00 0.00 98 903.3
20260902025031 68 345 1.0 10.0 0.00 0.00 0.00 99 903.3
20260902024632 68 336 4.0 17.0 0.00 0.00 0.00 98 903.2
20260902024531 68 70 8.0 20.0 0.00 0.00 0.00 98 903.3
20260902024033 68 255 9.0 20.0 0.00 0.00 0.00 98 903.3
20260902024031 68 303 9.0 20.0 0.00 0.00 0.00 98 903.3
20260902023531 68 306 8.0 22.0 0.00 0.00 0.00 98 903.4
20260902023432 68 14 7.0 22.0 0.00 0.00 0.00 98 903.4
20260902023031 68 306 6.0 22.0 0.00 0.00 0.00 98 903.5
20260902022832 68 23 7.0 22.0 0.00 0.00 0.00 98 903.4
20260902022531 68 6 10.0 17.0 0.00 0.00 0.00 98 903.3
20260902022031 68 16 8.0 18.0 0.00 0.00 0.00 98 903.4
20260902021632 68 346 7.0 18.0 0.00 0.00 0.00 98 903.3
20260902021531 68 19 6.0 11.0 0.00 0.00 0.00 98 903.4
20260902021032 68 356 5.0 13.0 0.00 0.00 0.00 98 903.3
20260902021030 68 332 5.0 13.0 0.00 0.00 0.00 98 903.4
20260902020531 68 357 7.0 13.0 0.00 0.00 0.00 98 903.4
20260902020432 68 1 7.0 12.0 0.00 0.00 0.00 98 903.3
20260902020030 67 41 2.0 11.0 0.00 0.00 0.00 98 903.4
20260902015530 68 303 3.0 11.0 0.00 0.00 0.00 98 903.4
20260902015232 68 356 12.0 19.0 0.00 0.00 0.00 98 903.5
20260902015030 67 354 8.0 19.0 0.00 0.00 0.00 98 903.3
20260902014632 67 10 9.0 18.0 0.00 0.00 0.00 98 903.4
20260902014530 68 1 9.0 18.0 0.00 0.00 0.00 98 903.3
20260902014032 68 0 9.0 18.0 0.00 0.00 0.00 98 903.3
20260902014030 68 334 9.0 18.0 0.00 0.00 0.00 98 903.3
20260902013530 67 6 2.0 20.0 0.00 0.00 0.00 98 903.2
20260902013432 68 7 10.0 21.0 0.00 0.00 0.00 98 903.4
20260902013030 68 1 12.0 21.0 0.00 0.00 0.00 98 903.3
20260902012832 68 44 12.0 19.0 0.00 0.00 0.00 98 903.4
20260902012232 67 1 7.0 19.0 0.00 0.00 0.00 98 903.1
20260902012030 67 4 8.0 19.0 0.00 0.00 0.00 98 903.4
20260902011631 68 10 8.0 19.0 0.00 0.00 0.00 98 903.3
20260902011530 67 338 7.0 19.0 0.00 0.00 0.00 98 903.2
20260902011032 68 11 10.0 19.0 0.00 0.00 0.00 98 903.3
20260902011030 68 344 10.0 19.0 0.00 0.00 0.00 98 903.2
20260902010530 68 341 13.0 20.0 0.00 0.00 0.00 98 903.2
20260902010432 67 8 11.0 20.0 0.00 0.00 0.00 98 903.2
20260902010030 68 34 10.0 20.0 0.00 0.00 0.00 98 903.4
20260902005831 68 347 8.0 15.0 0.00 0.00 0.00 98 903.1
20260902005530 68 330 10.0 21.0 0.00 0.00 0.00 98 903.2
20260902005231 68 10 10.0 21.0 0.00 0.00 0.00 98 903.3
20260902005030 68 348 10.0 21.0 0.00 0.00 0.00 98 903.2
20260902004631 67 22 9.0 20.0 0.00 0.00 0.00 98 903.1
20260902004530 67 19 11.0 20.0 0.00 0.00 0.00 98 903.2
20260902004032 67 14 8.0 13.0 0.00 0.00 0.00 98 903.1
20260902004030 67 360 8.0 13.0 0.00 0.00 0.00 98 903.1
20260902003530 67 344 1.0 13.0 0.00 0.00 0.00 98 903.1
20260902003431 67 11 1.0 13.0 0.00 0.00 0.00 98 903.2
20260902003030 67 4 11.0 19.0 0.00 0.00 0.00 98 903.2
20260902002831 67 355 8.0 19.0 0.00 0.00 0.00 98 903.1
20260902002530 67 23 8.0 16.0 0.00 0.00 0.00 98 903.1
20260902002231 67 351 8.0 17.0 0.00 0.00 0.00 98 903.1
20260902002030 67 360 9.0 17.0 0.00 0.00 0.00 98 903.1
20260902001631 67 8 8.0 17.0 0.00 0.00 0.00 98 903.0
20260902001530 67 354 9.0 17.0 0.00 0.00 0.00 98 902.9
20260902001031 67 12 9.0 19.0 0.00 0.00 0.00 98 902.9
20260902000529 67 360 10.0 19.0 0.00 0.00 0.00 98 902.9
20260902000431 67 19 8.0 19.0 0.00 0.00 0.00 98 902.9
20260902000030 67 360 7.0 19.0 0.00 0.00 0.00 98 902.9
20260901235831 67 4 14.0 19.0 0.00 0.00 0.00 98 902.8
20260901235231 67 3 10.0 19.0 0.00 0.00 0.00 98 902.7
20260901235031 67 356 7.0 19.0 0.00 0.00 0.00 98 902.8
20260901234631 67 351 11.0 19.0 0.00 0.00 0.00 98 902.6
20260901234529 67 357 10.0 17.0 0.00 0.00 0.00 98 902.6
20260901234031 67 24 10.0 21.0 0.00 0.00 0.00 98 902.6
20260901233529 68 32 11.0 21.0 0.00 0.00 0.00 98 902.5
20260901233431 68 7 13.0 21.0 0.00 0.00 0.00 98 902.5
20260901233029 68 360 11.0 19.0 0.00 0.00 0.00 98 902.5
20260901232831 68 357 12.0 19.0 0.00 0.00 0.00 98 902.5
20260901232529 68 355 12.0 19.0 0.00 0.00 0.00 98 902.2
20260901232231 68 6 11.0 19.0 0.00 0.00 0.00 98 902.5
20260901232029 68 360 9.0 19.0 0.00 0.00 0.00 98 902.4
20260901231631 68 31 10.0 19.0 0.00 0.00 0.00 98 902.5
20260901231529 68 6 10.0 19.0 0.00 0.00 0.00 98 902.4
20260901231031 68 360 10.0 19.0 0.00 0.00 0.00 98 902.3
20260901231029 68 12 10.0 19.0 0.00 0.00 0.00 98 902.3
20260901230529 68 1 9.0 19.0 0.00 0.00 0.00 98 901.9
20260901230430 68 60 10.0 21.0 0.00 0.00 0.00 98 902.2
20260901230029 68 24 10.0 21.0 0.00 0.00 0.00 98 902.0
20260901225830 68 40 9.0 21.0 0.00 0.00 0.00 98 902.0
20260901225529 68 34 10.0 22.0 0.00 0.00 0.00 98 902.1
20260901225230 68 350 11.0 22.0 0.00 0.00 0.00 98 902.0
20260901225029 68 7 11.0 22.0 0.00 0.00 0.00 98 901.8
20260901224630 68 18 6.0 19.0 0.00 0.00 0.00 98 901.9
20260901224031 68 342 10.0 23.0 0.00 0.00 0.00 98 901.8
20260901224029 68 315 10.0 23.0 0.00 0.00 0.00 98 901.7
20260901223529 68 356 11.0 20.0 0.00 0.00 0.00 98 901.6
20260901223430 68 342 10.0 20.0 0.00 0.00 0.00 98 901.9
20260901223029 68 345 12.0 19.0 0.00 0.00 0.00 98 901.6
20260901222830 68 4 7.0 19.0 0.00 0.00 0.00 98 901.9
20260901222529 67 32 12.0 19.0 0.00 0.00 0.00 98 901.9
20260901222230 67 12 6.0 19.0 0.00 0.00 0.00 98 901.8
20260901222029 68 350 10.0 21.0 0.00 0.00 0.00 98 901.9
20260901221630 68 8 11.0 21.0 0.00 0.00 0.00 98 901.8
20260901221529 68 360 12.0 21.0 0.00 0.00 0.00 98 901.8
20260901221031 68 38 11.0 21.0 0.00 0.00 0.00 98 901.7
20260901221029 68 29 11.0 21.0 0.00 0.00 0.00 98 901.7
20260901220529 67 1 14.0 20.0 0.00 0.00 0.00 98 901.6
20260901220430 68 2 12.0 20.0 0.00 0.00 0.00 98 901.5
20260901220029 68 11 14.0 23.0 0.00 0.00 0.00 98 901.6
20260901215830 68 360 6.0 23.0 0.00 0.00 0.00 98 901.4
20260901215529 68 360 13.0 22.0 0.00 0.02 0.00 98 901.6
20260901215230 68 12 11.0 22.0 0.00 0.02 0.00 98 901.6
20260901215029 68 355 11.0 19.0 0.00 0.02 0.00 98 901.6
20260901214630 68 35 10.0 19.0 0.00 0.02 0.00 98 901.7
20260901214529 68 2 10.0 19.0 0.00 0.02 0.00 98 901.6
20260901214030 68 356 11.0 19.0 0.00 0.02 0.00 98 901.7
20260901214028 68 3 11.0 19.0 0.00 0.02 0.00 98 901.7
20260901213528 68 12 10.0 17.0 0.00 0.02 0.00 98 901.6
20260901213430 68 332 9.0 16.0 0.00 0.02 0.00 98 901.6
20260901213028 67 38 11.0 17.0 0.00 0.02 0.00 98 901.7
20260901212830 68 360 8.0 17.0 0.00 0.02 0.00 98 901.7
20260901212528 68 27 10.0 17.0 0.00 0.02 0.00 98 901.7
20260901212230 68 313 11.0 17.0 0.00 0.02 0.00 98 901.7
20260901211528 68 334 5.0 12.0 0.00 0.02 0.00 98 901.9
20260901211030 68 13 6.0 17.0 0.01 0.02 0.00 98 901.9
20260901211028 68 19 6.0 17.0 0.01 0.02 0.00 98 901.9